TimeCDT,TemperatureF,Dew PointF,Humidity,Sea Level PressureIn,VisibilityMPH,Wind Direction,Wind SpeedMPH,Gust SpeedMPH,PrecipitationIn,Events,Conditions,WindDirDegrees,DateUTC
12:58 AM,61.0,54.0,78,30.04,10.0,South,8.1,-,N/A,,Clear,180,2014-04-13 05:58:00
1:58 AM,57.9,53.1,84,30.03,10.0,South,5.8,-,N/A,,Clear,190,2014-04-13 06:58:00
2:58 AM,57.9,53.1,84,30.02,10.0,SSW,3.5,-,N/A,,Clear,210,2014-04-13 07:58:00
3:58 AM,57.0,53.1,87,30.01,10.0,Calm,Calm,-,N/A,,Clear,0,2014-04-13 08:58:00
4:58 AM,55.0,53.1,93,30.01,10.0,SW,3.5,-,N/A,,Clear,220,2014-04-13 09:58:00
5:58 AM,55.0,53.1,93,30.01,10.0,SSW,3.5,-,N/A,,Partly Cloudy,200,2014-04-13 10:58:00
6:58 AM,57.9,55.0,90,30.04,10.0,SSW,4.6,-,N/A,,Overcast,200,2014-04-13 11:58:00
7:58 AM,62.1,57.9,86,30.06,10.0,South,8.1,-,N/A,,Partly Cloudy,170,2014-04-13 12:58:00
8:58 AM,61.0,55.9,83,30.07,10.0,SSE,11.5,-,N/A,,Clear,160,2014-04-13 13:58:00
9:58 AM,66.9,57.9,73,30.08,10.0,SSE,6.9,-,N/A,,Clear,150,2014-04-13 14:58:00
10:58 AM,72.0,57.9,61,30.06,10.0,South,9.2,-,N/A,,Clear,170,2014-04-13 15:58:00
11:58 AM,75.0,59.0,57,30.06,10.0,South,11.5,21.9,N/A,,Scattered Clouds,190,2014-04-13 16:58:00
12:58 PM,77.0,60.1,56,30.03,10.0,South,17.3,23.0,N/A,,Overcast,180,2014-04-13 17:58:00
1:58 PM,81.0,59.0,47,29.99,10.0,South,15.0,19.6,N/A,,Scattered Clouds,170,2014-04-13 18:58:00
2:58 PM,80.1,57.9,47,29.96,10.0,SSE,12.7,-,N/A,,Mostly Cloudy,160,2014-04-13 19:58:00
3:58 PM,80.1,57.9,47,29.93,10.0,SSE,13.8,24.2,N/A,,Scattered Clouds,150,2014-04-13 20:58:00
4:58 PM,79.0,57.9,48,29.92,10.0,SSE,16.1,-,N/A,,Mostly Cloudy,160,2014-04-13 21:58:00
5:58 PM,78.1,57.0,48,29.92,10.0,South,17.3,24.2,N/A,,Clear,170,2014-04-13 22:58:00
6:58 PM,73.9,55.9,53,29.91,10.0,South,9.2,-,N/A,,Clear,170,2014-04-13 23:58:00
7:58 PM,71.1,55.9,59,29.93,10.0,South,5.8,-,N/A,,Clear,180,2014-04-14 00:58:00
8:58 PM,71.1,55.9,59,29.91,10.0,South,10.4,-,N/A,,Clear,170,2014-04-14 01:58:00
9:58 PM,66.9,57.0,70,29.93,10.0,South,9.2,-,N/A,,Clear,190,2014-04-14 02:58:00
10:58 PM,69.1,59.0,70,29.93,10.0,South,11.5,-,N/A,,Clear,180,2014-04-14 03:58:00
11:58 PM,69.1,60.1,73,29.89,10.0,South,10.4,-,N/A,,Clear,180,2014-04-14 04:58:00